DMSP 5D-2 F13 DEB, 40436

Orbit data source: Space-Track

DMSP 5D-2 F13 DEB, 40436 is space debris in SSO originally from a launch on Fri, 24 Mar 1995 UTC launched from the Air Force Western Test Range (AFWTR). Debris objects in space refer to the collection of defunct objects orbiting the Earth. Examples of debris include non-operational satellites, rocket bodies, and fragments generated from explosions, collisions, or faulty payload assembly.

Loading next visibility...
Identifier
40436, 1995-015AN
Orbit
SSO
Country
Flag of USUS
Related business
Manufacturer
Unknown
Mission
Spacecraft
Bus & Motor
Unknown
Mass
Unknown
Launch date (UTC)
1995-03-24 (31 years ago)
Launch vehicle
Unknown
Launch site
Air Force Western Test Range (AFWTR)
Object type
Payload
Rocket body
Debris
Shape & HBR
Unknown shape, 0.1 m
Radar Cross Section
Small (<0.1 m²)

Expand to show TLE details & history
Last TLE update: 23 hours ago

TLE from 23 hours ago
0 DMSP 5D-2 F13 DEB
1 40436U 95015AN  26163.18217566  .00000331  00000-0  33874-3 0  9996
2 40436  98.8645 242.2725 0230410 140.5081 221.3115 13.71657806563599
Epoch: 2026-06-12T04:22Z
TLE epoch observation values (Epoch: 2026-06-12T04:22:19.977Z)
Latitude
-0.00001°
Longitude
-83.82603°
Altitude
1,125.74 km
Speed
7.226 km/s
True Right ascension
16h 09m 05s
True Declination
0° 00' 00"
Sunlit
Object was in full shadow at epoch
Visualization orbit readout
Latitude
Unknown
Longitude
Unknown
Altitude
Unknown
Speed
Unknown
Apparent Right ascension
Unknown
Apparent Declination
Unknown
Sunlit
N/A
Visualization observer readout
Local Sidereal Time
13:58:53
Azimuth
Unknown
Elevation
Unknown
Doppler factor
Unknown
Orbital elements
Apogee altitude
1,160.643 km
Perigee altitude
821.065 km
Semi-major axis
7,368.991 km
Eccentricity
0.02304
Inclination
98.8645°
RAAN
242.2725°
Arg. of periapsis
140.5081°
True anomaly
219.60569°
Mean anomaly
221.3115°
Eccentric anomaly
220.45492°
Mean motion
3.43108 °/min
Orbital period
104.92 mins
BSTAR
0.00033874
Loading maneuver chart data...
Computing Atmospheric mass density...

Documentation

Showing up to 5 results
|